Regional Weather Roundup
Issued by NWS

Home | Current Version | Previous Version | Text Only | Print | Product List | Glossary Off
Versions: 1 2 3 4 5 6 7 8 9 10 11 12 13 14 15 16 17 18 19 20 21 22 23 24 25 26 27 28

000
ASUS45 KSLC 250610
RWRUT

UTAH REGIONAL WEATHER ROUNDUP
NATIONAL WEATHER SERVICE SALT LAKE CITY UT
1200 AM MDT TUE JUL 25 2017

UTZ001>011-023>025-250700-

NORTHERN UTAH

CITY           SKY/WX    TMP DP  RH WIND       PRES   REMARKS
BRIGHAM CITY   CLOUDY    75  51  43 CALM      29.96R
HILL AFB       CLOUDY    78  51  38 S22G30    30.04R
LOGAN          CLOUDY    69  56  62 NW3       29.98S
OGDEN          CLOUDY    80  51  36 S25G33    29.99R
SALT LAKE CITY LGT RAIN  79  63  57 SE3       30.03R
TOOELE VALLEY  RAIN      79  52  38 S21       30.05R
WENDOVER       CLOUDY    82  48  30 NW8       30.02S
HEBER CITY     RAIN      63  55  77 SW17      30.16S
WEST JORDAN    CLOUDY    75  62  64 S13G22    30.09R

$$

UTZ011>015-024>027-250700-

CENTRAL/NORTHEAST UTAH

CITY           SKY/WX    TMP DP  RH WIND       PRES   REMARKS
PROVO AIRPORT  LGT RAIN  68  62  81 NE6       30.12R
MOAB/CANYONLAN LGT RAIN  67  64  90 N14       30.07F
DELTA          CLOUDY    72  54  53 N6        30.10S
PRICE          CLOUDY    65  61  87 SE21G32   30.19R
ROOSEVELT      CLOUDY    73  50  43 W8        30.07S
VERNAL         CLOUDY    72  49  44 CALM      30.06R

$$

UTZ013>016-019>022-027-250700-

SOUTHERN UTAH

CITY           SKY/WX    TMP DP  RH WIND       PRES   REMARKS
BRYCE CANYON   CLOUDY    58  56  93 N3        30.30S
CEDAR CITY     RAIN      63  63 100 SW7       30.17R FOG
MILFORD        MOCLDY    68  59  73 NE9       30.11S
ST GEORGE      RAIN      71  69  93 W5        30.02R
HANKSVILLE     CLOUDY    75  57  53 E18       30.08R
BLANDING       CLOUDY    69  57  65 E9        30.28R

$$

REGIONAL REPORTS     COLORADO/ARIZONA

CITY           SKY/WX    TMP DP  RH WIND       PRES   REMARKS
CRAIG, CO      CLOUDY    63  51  65 CALM      30.15R
GRAND JUNCTION LGT RAIN  70  61  73 NE17G23   30.14R
RIFLE, CO      CLOUDY    70  57  63 S3        30.20R
MONTROSE, CO   LGT RAIN  68  57  68 SW8       30.22R
CORTEZ, CO     CLOUDY    64  61  90 CALM      30.22F
COLORADO CITY  LGT RAIN  68  64  88 N3        30.16R
PAGE, AZ       MOCLDY    78  58  49 VRB3      30.05R
GRAND CANYON   LGT RAIN  61  61 100 S6        30.25R
KINGMAN, AZ    PTCLDY    73  68  84 S6        30.03R
FLAGSTAFF, AZ  RAIN      60  60 100 VRB7      30.29R FOG

$$

REGIONAL REPORTS    NEVADA/IDAHO/WYOMING

CITY           SKY/WX    TMP DP  RH WIND       PRES   REMARKS
LAS VEGAS, NV  CLOUDY    86  64  47 S9        29.89R
ELY, NY        CLOUDY    62  56  80 S12       30.22F
ELKO, NV       CLOUDY    73  46  38 W5        30.12S
POCATELLO, ID  PTCLDY    70  53  54 N12       30.01R
BURLEY, ID     CLOUDY    76  50  40 SW14      29.97R
FORT BRIDGER,    N/A     71  43  37 SW9       30.21F
EVANSTON, WY   CLOUDY    68  44  42 SW6       30.21R
ROCK SPRINGS,  CLOUDY    70  39  32 NW6       30.17R
KEMMERER, WY     N/A    N/A N/A N/A N9        30.21S

$$




USA.gov is the U.S. government's official web portal to all federal, state and local government web resources and services.